This is the latest recevied weather packets stored in our database for station/object K0CVS. If no packets are shown the sender has not sent any weather packets the latest 1 day(s).
| Time | Temp. | Humidity | Pressure | Rain* | Wind** | Luminosity | Snow |
|---|---|---|---|---|---|---|---|
| 1778033973 | 10° C | 91% | 1013.1 hPa | 0 mm | 0 m/s | 0 W/m² | - |
| 1778033670 | 10° C | 91% | 1012.9 hPa | 0 mm | 0 m/s | 0 W/m² | - |
| 1778033367 | 10° C | 90% | 1012.9 hPa | 0 mm | 0 m/s | 0 W/m² | - |
| 1778033065 | 10° C | 90% | 1012.6 hPa | 0 mm | 0 m/s | 0 W/m² | - |
| 1778032762 | 10° C | 90% | 1012.4 hPa | 0 mm | 0 m/s | 0 W/m² | - |
| 1778032459 | 10° C | 90% | 1012.4 hPa | 0 mm | 0 m/s | 0 W/m² | - |
| 1778032156 | 10° C | 89% | 1012.4 hPa | 0 mm | 0 m/s | 0 W/m² | - |
| 1778031853 | 10° C | 89% | 1012.5 hPa | 0 mm | 0 m/s | 0 W/m² | - |
| 1778031550 | 10° C | 88% | 1012.4 hPa | 0 mm | 0 m/s | 0 W/m² | - |
| 1778031248 | 10° C | 88% | 1012.2 hPa | 0 mm | 0 m/s | 0 W/m² | - |
| 1778030943 | 10.56° C | 87% | 1012.3 hPa | 0 mm | 0 m/s | 0 W/m² | - |
| 1778030640 | 10.56° C | 87% | 1012.3 hPa | 0 mm | 0 m/s | 0 W/m² | - |
| 1778030337 | 10.56° C | 86% | 1012.3 hPa | 0 mm | 0 m/s | 1 W/m² | - |
| 1778030034 | 10.56° C | 86% | 1012.3 hPa | 0 mm | 0 m/s | 1 W/m² | - |
| 1778029732 | 10.56° C | 84% | 1012.5 hPa | 0 mm | 0 m/s | 2 W/m² | - |
| 1778029430 | 10.56° C | 84% | 1012.5 hPa | 0 mm | 0 m/s | 4 W/m² | - |
| 1778029126 | 10.56° C | 84% | 1012.1 hPa | 0 mm | 0 m/s | 5 W/m² | - |
| 1778028823 | 10.56° C | 83% | 1012.3 hPa | 0 mm | 0 m/s | 8 W/m² | - |
| 1778028519 | 10.56° C | 84% | 1012.1 hPa | 0 mm | 0 m/s | 7 W/m² | - |
| 1778028217 | 10.56° C | 85% | 1012 hPa | 0 mm | 0 m/s | 9 W/m² | - |
| 1778027913 | 10.56° C | 85% | 1012 hPa | 0 mm | 0 m/s | 8 W/m² | - |
| 1778027609 | 10.56° C | 86% | 1012.1 hPa | 0 mm | 0 m/s | 8 W/m² | - |
| 1778027305 | 10.56° C | 85% | 1012.2 hPa | 0 mm | 0 m/s | 9 W/m² | - |
| 1778027002 | 10.56° C | 85% | 1012.1 hPa | 0 mm | 0 m/s | 13 W/m² | - |
| 1778026698 | 10.56° C | 84% | 1012.2 hPa | 0 mm | 0 m/s | 15 W/m² | - |
* Rain latest hour (hover to see other rain measurements)
** Current wind speed in m/s (hover to see current wind gust speed)